When you browse on this site, cookies collect data to enhance your experience and personalize the content and advertising you see.
Visit our Privacy Policy to learn more. By continuing to use the site, you agree to this use of cookies and data.
  • In Hungary
  • List of Countries
  • For 7 days
  • Water Temperature
  • Satellite Maps
  • Weather Map
  • News
  • Weather Widgets
  • user-avatar
    Login

    Hourly Weather Carlos Barbosa

    Today, 17 July, Wednesday

    Time Temperature Precipitation Wind Pressure Humidity
    00:00 +4°C° 0 mm 0 mps 710 mmHg 98%
    01:00 +3°C° 0 mm 0 mps 710 mmHg 98%
    02:00 +3°C° 0 mm 0 mps 710 mmHg 98%
    03:00 +3°C° 0 mm 0 mps 710 mmHg 98%
    04:00 +3°C° 0 mm 0 mps 710 mmHg 98%
    05:00 +3°C° 0 mm 0 mps 710 mmHg 97%
    06:00 +3°C° 0 mm 0 mps 710 mmHg 97%
    07:00 +5°C° 0 mm 1 mps 710 mmHg 93%
    08:00 +7°C° 0 mm 1 mps 711 mmHg 89%
    09:00 +8°C° 0 mm 1 mps 712 mmHg 85%
    10:00 +10°C° 0 mm 1 mps 712 mmHg 76%
    11:00 +12°C° 0 mm 1 mps 712 mmHg 68%
    12:00 +15°C° 0 mm 1 mps 712 mmHg 60%
    13:00 +15°C° 0 mm 1 mps 711 mmHg 58%
    14:00 +16°C° 0 mm 1 mps 711 mmHg 57%
    15:00 +18°C° 0 mm 1 mps 711 mmHg 55%
    16:00 +14°C° 0 mm 1 mps 710 mmHg 67%
    17:00 +11°C° 0 mm 0 mps 710 mmHg 78%
    18:00 +9°C° 0 mm 0 mps 709 mmHg 90%
    19:00 +9°C° 0 mm 0 mps 710 mmHg 91%
    20:00 +9°C° 0 mm 1 mps 710 mmHg 93%
    21:00 +9°C° 0 mm 1 mps 710 mmHg 95%
    22:00 +8°C° 0 mm 1 mps 710 mmHg 94%
    23:00 +8°C° 0 mm 1 mps 710 mmHg 93%

    Tomorrow, 18 July, Thursday

    Time Temperature Precipitation Wind Pressure Humidity
    00:00 +8°C° 0 mm 1 mps 710 mmHg 92%
    01:00 +8°C° 0 mm 1 mps 709 mmHg 92%
    02:00 +7°C° 0 mm 1 mps 709 mmHg 93%
    03:00 +7°C° 0 mm 1 mps 709 mmHg 93%
    04:00 +7°C° 0 mm 1 mps 709 mmHg 94%
    05:00 +7°C° 0 mm 1 mps 709 mmHg 94%
    06:00 +7°C° 0 mm 1 mps 709 mmHg 94%
    07:00 +8°C° 0 mm 1 mps 709 mmHg 89%
    08:00 +10°C° 0 mm 1 mps 710 mmHg 84%
    09:00 +10°C° 0 mm 2 mps 710 mmHg 78%
    10:00 +13°C° 0 mm 2 mps 711 mmHg 72%
    11:00 +15°C° 0 mm 2 mps 711 mmHg 66%
    12:00 +18°C° 0 mm 2 mps 711 mmHg 59%
    13:00 +18°C° 0 mm 2 mps 711 mmHg 59%
    14:00 +19°C° 0 mm 2 mps 710 mmHg 58%
    15:00 +21°C° 0 mm 1 mps 710 mmHg 58%
    16:00 +19°C° 0 mm 1 mps 710 mmHg 67%
    17:00 +16°C° 0 mm 1 mps 709 mmHg 77%
    18:00 +14°C° 0 mm 1 mps 709 mmHg 86%
    19:00 +13°C° 0 mm 1 mps 709 mmHg 87%
    20:00 +12°C° 0 mm 1 mps 709 mmHg 88%
    21:00 +11°C° 0 mm 1 mps 710 mmHg 89%
    22:00 +10°C° 0 mm 2 mps 710 mmHg 90%
    23:00 +10°C° 0 mm 2 mps 710 mmHg 90%

    Day after tomorrow, 19 July, Friday

    Time Temperature Precipitation Wind Pressure Humidity
    00:00 +9°C° 0 mm 2 mps 710 mmHg 91%
    01:00 +9°C° 0 mm 2 mps 709 mmHg 92%
    02:00 +10°C° 0 mm 1 mps 709 mmHg 92%
    03:00 +10°C° 0 mm 1 mps 709 mmHg 93%
    04:00 +10°C° 0 mm 1 mps 709 mmHg 93%
    05:00 +10°C° 0 mm 1 mps 709 mmHg 93%
    06:00 +10°C° 0 mm 1 mps 708 mmHg 93%
    07:00 +11°C° 0 mm 1 mps 709 mmHg 89%
    08:00 +12°C° 0 mm 1 mps 709 mmHg 85%
    09:00 +13°C° 0 mm 1 mps 709 mmHg 81%
    10:00 +14°C° 0 mm 2 mps 709 mmHg 75%
    11:00 +16°C° 0 mm 2 mps 709 mmHg 68%
    12:00 +18°C° 0 mm 2 mps 709 mmHg 62%
    13:00 +19°C° 0 mm 2 mps 709 mmHg 61%
    14:00 +19°C° 0 mm 2 mps 709 mmHg 60%
    15:00 +20°C° 0 mm 2 mps 708 mmHg 59%
    16:00 +19°C° 0 mm 1 mps 708 mmHg 68%
    17:00 +16°C° 0 mm 1 mps 707 mmHg 78%
    18:00 +14°C° 0 mm 1 mps 707 mmHg 87%
    19:00 +14°C° 0 mm 1 mps 707 mmHg 89%
    20:00 +13°C° 0 mm 1 mps 707 mmHg 91%
    21:00 +13°C° 0 mm 1 mps 707 mmHg 93%
    22:00 +12°C° 0 mm 1 mps 707 mmHg 92%
    23:00 +12°C° 0 mm 1 mps 707 mmHg 92%

    20 July, Saturday

    Time Temperature Precipitation Wind Pressure Humidity
    00:00 +12°C° 0 mm 1 mps 707 mmHg 91%
    01:00 +12°C° 0 mm 1 mps 707 mmHg 91%
    02:00 +12°C° 0 mm 1 mps 707 mmHg 90%
    03:00 +12°C° 0 mm 1 mps 706 mmHg 89%
    04:00 +12°C° 0 mm 1 mps 706 mmHg 89%
    05:00 +13°C° 0 mm 1 mps 706 mmHg 88%
    06:00 +13°C° 0 mm 1 mps 706 mmHg 87%
    07:00 +13°C° 0 mm 1 mps 707 mmHg 85%
    08:00 +14°C° 0 mm 1 mps 707 mmHg 82%
    09:00 +15°C° 0 mm 1 mps 707 mmHg 80%
    10:00 +16°C° 0 mm 1 mps 707 mmHg 78%
    11:00 +18°C° 0 mm 1 mps 707 mmHg 77%
    12:00 +18°C° 0 mm 2 mps 708 mmHg 76%
    13:00 +18°C° 0 mm 2 mps 707 mmHg 73%
    14:00 +19°C° 0 mm 2 mps 706 mmHg 70%
    15:00 +20°C° 0 mm 2 mps 706 mmHg 67%
    16:00 +19°C° 0 mm 2 mps 706 mmHg 71%
    17:00 +18°C° 0 mm 2 mps 705 mmHg 76%
    18:00 +16°C° 0 mm 2 mps 705 mmHg 81%
    19:00 +16°C° 0 mm 2 mps 705 mmHg 82%
    20:00 +15°C° 0 mm 2 mps 705 mmHg 83%
    21:00 +14°C° 0 mm 2 mps 705 mmHg 84%
    22:00 +14°C° 0 mm 2 mps 705 mmHg 83%
    23:00 +14°C° 0 mm 2 mps 704 mmHg 83%

    21 July, Sunday

    Time Temperature Precipitation Wind Pressure Humidity
    00:00 +14°C° 0 mm 2 mps 704 mmHg 82%
    01:00 +14°C° 0 mm 2 mps 704 mmHg 82%
    02:00 +14°C° 0 mm 2 mps 703 mmHg 83%
    03:00 +14°C° 0 mm 2 mps 703 mmHg 83%
    04:00 +14°C° 0 mm 2 mps 703 mmHg 82%
    05:00 +14°C° 0 mm 2 mps 703 mmHg 82%
    06:00 +14°C° 0 mm 2 mps 703 mmHg 82%
    07:00 +14°C° 0 mm 2 mps 703 mmHg 79%
    08:00 +15°C° 0 mm 2 mps 703 mmHg 76%
    09:00 +16°C° 0 mm 2 mps 704 mmHg 73%
    10:00 +18°C° 0 mm 3 mps 704 mmHg 66%
    11:00 +20°C° 0 mm 3 mps 704 mmHg 60%
    12:00 +22°C° 0 mm 3 mps 704 mmHg 53%
    13:00 +22°C° 0 mm 3 mps 703 mmHg 53%
    14:00 +24°C° 0 mm 3 mps 703 mmHg 54%
    15:00 +24°C° 0 mm 3 mps 702 mmHg 54%
    16:00 +22°C° 0 mm 3 mps 702 mmHg 60%
    17:00 +20°C° 0 mm 2 mps 702 mmHg 66%
    18:00 +19°C° 0 mm 2 mps 702 mmHg 72%
    19:00 +18°C° 0 mm 2 mps 702 mmHg 72%
    20:00 +18°C° 0 mm 2 mps 702 mmHg 71%
    21:00 +18°C° 0 mm 3 mps 702 mmHg 71%
    22:00 +18°C° 0 mm 3 mps 702 mmHg 70%
    23:00 +18°C° 0 mm 3 mps 702 mmHg 69%

    22 July, Monday

    Time Temperature Precipitation Wind Pressure Humidity
    00:00 +17°C° 0 mm 3 mps 702 mmHg 68%
    01:00 +17°C° 0 mm 3 mps 702 mmHg 69%
    02:00 +17°C° 0 mm 3 mps 702 mmHg 70%
    03:00 +16°C° 0 mm 3 mps 702 mmHg 71%
    04:00 +16°C° 0 mm 3 mps 702 mmHg 71%
    05:00 +16°C° 0 mm 3 mps 702 mmHg 71%
    06:00 +15°C° 0 mm 4 mps 701 mmHg 71%
    07:00 +17°C° 0 mm 4 mps 702 mmHg 68%
    08:00 +17°C° 0 mm 4 mps 702 mmHg 66%
    09:00 +18°C° 0 mm 4 mps 702 mmHg 63%
    10:00 +19°C° 0 mm 4 mps 702 mmHg 60%
    11:00 +21°C° 0 mm 4 mps 702 mmHg 57%
    12:00 +22°C° 0 mm 4 mps 703 mmHg 54%
    13:00 +21°C° 0.3 mm 3 mps 702 mmHg 63%
    14:00 +20°C° 0.3 mm 2 mps 702 mmHg 72%
    15:00 +19°C° 0.3 mm 2 mps 701 mmHg 81%
    16:00 +20°C° 0.4 mm 1 mps 702 mmHg 85%
    17:00 +19°C° 0.4 mm 1 mps 702 mmHg 90%
    18:00 +16°C° 0.4 mm 0 mps 702 mmHg 95%
    19:00 +16°C° 0.7 mm 0 mps 702 mmHg 96%
    20:00 +16°C° 0.7 mm 0 mps 703 mmHg 97%
    21:00 +16°C° 0.7 mm 0 mps 703 mmHg 99%
    22:00 +15°C° 0.7 mm 0 mps 703 mmHg 98%
    23:00 +15°C° 0.7 mm 0 mps 703 mmHg 98%
    Show more